TAM3665 SBVT-SBGL

Flight info

Callsign TAM3665
Flight time 0h 55m
Altitude 34000
Route USVAG UN401 MOLSU
Aircraft A20N/M-SDE2E3FGHIRWXY/LB1

Departure

Time 2026-04-20 01:49
Airport Eurico de Aguiar Salles International Airport (SBVT)

Arrival

Time 2026-04-20 02:44
Airport Rio Galeão – Tom Jobim International Airport (SBGL)
Time Latitude Longitude Altitude Speed Heading
2026-04-20 01:35 -20.26615 -40.28154 37 ft 0 kts 261°
2026-04-20 01:38 -20.26614 -40.28149 36 ft 2 kts 261°
2026-04-20 01:39 -20.26611 -40.28132 35 ft 2 kts 261°
2026-04-20 01:39 -20.26609 -40.28114 33 ft 2 kts 262°
2026-04-20 01:39 -20.26607 -40.28097 34 ft 2 kts 262°
2026-04-20 01:39 -20.26604 -40.28080 35 ft 2 kts 263°
2026-04-20 01:40 -20.26603 -40.28062 36 ft 2 kts 265°
2026-04-20 01:40 -20.26602 -40.28044 37 ft 2 kts 271°
2026-04-20 01:40 -20.26605 -40.28027 37 ft 2 kts 315°
2026-04-20 01:40 -20.26613 -40.28023 35 ft 1 kts 348°
2026-04-20 01:42 -20.26612 -40.28023 35 ft 0 kts 348°
2026-04-20 01:42 -20.26608 -40.28024 37 ft 2 kts 349°
2026-04-20 01:42 -20.26586 -40.28028 35 ft 5 kts 349°
2026-04-20 01:43 -20.26538 -40.28034 36 ft 9 kts 355°
2026-04-20 01:43 -20.26468 -40.28044 36 ft 12 kts 352°
2026-04-20 01:43 -20.26377 -40.28057 35 ft 14 kts 353°
2026-04-20 01:43 -20.26277 -40.28069 34 ft 15 kts 353°
2026-04-20 01:44 -20.26179 -40.28087 33 ft 14 kts 352°
2026-04-20 01:44 -20.26084 -40.28101 32 ft 14 kts 352°
2026-04-20 01:44 -20.25985 -40.28115 31 ft 15 kts 352°
2026-04-20 01:44 -20.25879 -40.28131 30 ft 16 kts 352°
2026-04-20 01:45 -20.25768 -40.28148 29 ft 16 kts 352°
2026-04-20 01:45 -20.25656 -40.28165 28 ft 16 kts 352°
2026-04-20 01:45 -20.25542 -40.28183 27 ft 17 kts 351°
2026-04-20 01:45 -20.25427 -40.28197 27 ft 15 kts 352°
2026-04-20 01:46 -20.25321 -40.28212 25 ft 16 kts 352°
2026-04-20 01:46 -20.25210 -40.28228 22 ft 16 kts 352°
2026-04-20 01:46 -20.25109 -40.28237 23 ft 12 kts
2026-04-20 01:46 -20.25068 -40.28207 21 ft 6 kts 39°
2026-04-20 01:47 -20.25030 -40.28178 22 ft 11 kts 33°
2026-04-20 01:47 -20.24963 -40.28134 23 ft 12 kts 31°
2026-04-20 01:47 -20.24881 -40.28103 22 ft 11 kts 355°
2026-04-20 01:47 -20.24808 -40.28080 22 ft 11 kts
2026-04-20 01:48 -20.24783 -40.28120 19 ft 2 kts 222°
2026-04-20 01:48 -20.24788 -40.28119 19 ft 1 kts 178°
2026-04-20 01:48 -20.24791 -40.28118 19 ft 0 kts 173°
2026-04-20 01:48 -20.24792 -40.28118 19 ft 0 kts 173°
2026-04-20 01:49 -20.25019 -40.28083 21 ft 71 kts 172°
2026-04-20 01:49 -20.25768 -40.27971 34 ft 147 kts 173°
2026-04-20 01:49 -20.26882 -40.27819 530 ft 167 kts 175°
2026-04-20 01:49 -20.27662 -40.27737 1029 ft 173 kts 176°
2026-04-20 01:50 -20.28875 -40.27666 1810 ft 174 kts 179°
2026-04-20 01:50 -20.30105 -40.27621 2467 ft 182 kts 177°
2026-04-20 01:50 -20.31388 -40.27492 3081 ft 186 kts 174°
2026-04-20 01:50 -20.32689 -40.27299 3670 ft 191 kts 172°
2026-04-20 01:51 -20.34021 -40.27046 4219 ft 198 kts 170°
2026-04-20 01:51 -20.35400 -40.26790 4734 ft 205 kts 174°
2026-04-20 01:51 -20.36832 -40.26927 5224 ft 212 kts 198°
2026-04-20 01:51 -20.38048 -40.27833 5677 ft 225 kts 234°
2026-04-20 01:52 -20.38496 -40.29512 5996 ft 252 kts 267°
2026-04-20 01:52 -20.38532 -40.31435 6519 ft 266 kts 266°
2026-04-20 01:52 -20.38625 -40.33423 7170 ft 271 kts 265°
2026-04-20 01:52 -20.38757 -40.35440 7927 ft 274 kts 264°
2026-04-20 01:53 -20.38911 -40.37471 8727 ft 276 kts 264°
2026-04-20 01:53 -20.39077 -40.39491 9475 ft 278 kts 264°
2026-04-20 01:53 -20.39252 -40.41552 9908 ft 280 kts 264°
2026-04-20 01:53 -20.39432 -40.43625 10021 ft 281 kts 264°
2026-04-20 01:54 -20.39614 -40.45703 10029 ft 282 kts 264°
2026-04-20 01:54 -20.39803 -40.47846 10055 ft 299 kts 264°
2026-04-20 01:54 -20.40005 -40.50127 10108 ft 324 kts 264°
2026-04-20 01:54 -20.40219 -40.52555 10622 ft 332 kts 264°
2026-04-20 01:55 -20.40435 -40.55014 11303 ft 335 kts 264°
2026-04-20 01:55 -20.40653 -40.57494 11983 ft 338 kts 263°
2026-04-20 01:55 -20.41143 -40.59946 12636 ft 340 kts 247°
2026-04-20 01:55 -20.42472 -40.62019 13312 ft 343 kts 224°
2026-04-20 01:56 -20.44356 -40.63600 13997 ft 346 kts 216°
2026-04-20 01:56 -20.46355 -40.65055 14613 ft 350 kts 214°
2026-04-20 01:56 -20.48390 -40.66516 15229 ft 354 kts 215°
2026-04-20 01:56 -20.50438 -40.67999 15837 ft 357 kts 215°
2026-04-20 01:57 -20.52501 -40.69506 16404 ft 361 kts 215°
2026-04-20 01:57 -20.54581 -40.71033 16998 ft 364 kts 215°
2026-04-20 01:57 -20.56675 -40.72575 17578 ft 368 kts 215°
2026-04-20 01:57 -20.58791 -40.74136 18160 ft 371 kts 215°
2026-04-20 01:58 -20.60918 -40.75707 18648 ft 374 kts 215°
2026-04-20 01:58 -20.63065 -40.77294 19115 ft 377 kts 215°
2026-04-20 01:58 -20.65226 -40.78893 19579 ft 380 kts 215°
2026-04-20 01:58 -20.67404 -40.80507 20053 ft 382 kts 216°
2026-04-20 01:59 -20.69504 -40.82258 20501 ft 385 kts 223°
2026-04-20 01:59 -20.71436 -40.84261 21019 ft 387 kts 226°
2026-04-20 01:59 -20.73278 -40.86370 21536 ft 389 kts 229°
2026-04-20 01:59 -20.75079 -40.88538 22055 ft 392 kts 230°
2026-04-20 02:00 -20.76876 -40.90742 22518 ft 395 kts 230°
2026-04-20 02:00 -20.78684 -40.92963 23060 ft 397 kts 230°
2026-04-20 02:00 -20.80509 -40.95191 23581 ft 399 kts 230°
2026-04-20 02:00 -20.82350 -40.97422 23993 ft 402 kts 230°
2026-04-20 02:01 -20.84211 -40.99662 24395 ft 404 kts 229°
2026-04-20 02:01 -20.86082 -41.01908 24791 ft 406 kts 229°
2026-04-20 02:01 -20.87967 -41.04166 25198 ft 408 kts 229°
2026-04-20 02:01 -20.89859 -41.06431 25595 ft 409 kts 229°
2026-04-20 02:02 -20.91762 -41.08709 26002 ft 411 kts 230°
2026-04-20 02:02 -20.93665 -41.10990 26396 ft 412 kts 230°
2026-04-20 02:02 -20.95578 -41.13284 26773 ft 414 kts 230°
2026-04-20 02:02 -20.97500 -41.15589 27148 ft 416 kts 230°
2026-04-20 02:03 -20.99425 -41.17902 27519 ft 418 kts 230°
2026-04-20 02:03 -21.01364 -41.20231 27859 ft 420 kts 230°
2026-04-20 02:03 -21.03311 -41.22570 28234 ft 421 kts 230°
2026-04-20 02:03 -21.05261 -41.24914 28600 ft 423 kts 230°
2026-04-20 02:04 -21.07218 -41.27269 28954 ft 424 kts 230°
2026-04-20 02:04 -21.09185 -41.29638 29243 ft 427 kts 230°
2026-04-20 02:04 -21.11163 -41.32018 29589 ft 428 kts 230°
2026-04-20 02:04 -21.13148 -41.34408 29929 ft 430 kts 230°
2026-04-20 02:05 -21.15136 -41.36803 30265 ft 430 kts 230°
2026-04-20 02:05 -21.17094 -41.39163 30637 ft 429 kts 230°
2026-04-20 02:05 -21.19078 -41.41555 30984 ft 429 kts 229°
2026-04-20 02:05 -21.21057 -41.43943 31322 ft 428 kts 229°
2026-04-20 02:06 -21.23034 -41.46329 31672 ft 428 kts 229°
2026-04-20 02:06 -21.25011 -41.48716 32016 ft 428 kts 229°
2026-04-20 02:06 -21.26982 -41.51098 32365 ft 427 kts 229°
2026-04-20 02:06 -21.28952 -41.53478 32704 ft 427 kts 229°
2026-04-20 02:07 -21.30921 -41.55861 33029 ft 427 kts 229°
2026-04-20 02:07 -21.32887 -41.58241 33335 ft 426 kts 229°
2026-04-20 02:07 -21.34854 -41.60623 33655 ft 426 kts 229°
2026-04-20 02:07 -21.36815 -41.63000 33956 ft 426 kts 229°
2026-04-20 02:08 -21.40743 -41.67763 34036 ft 426 kts 229°
2026-04-20 02:08 -21.44666 -41.72524 34037 ft 425 kts 229°
2026-04-20 02:09 -21.48584 -41.77282 34038 ft 426 kts 229°
2026-04-20 02:09 -21.52512 -41.82058 34040 ft 426 kts 229°
2026-04-20 02:10 -21.56437 -41.86833 34045 ft 426 kts 229°
2026-04-20 02:10 -21.60361 -41.91613 34046 ft 427 kts 229°
2026-04-20 02:11 -21.64285 -41.96396 34055 ft 427 kts 229°
2026-04-20 02:11 -21.68204 -42.01178 34045 ft 426 kts 229°
2026-04-20 02:12 -21.72090 -42.05923 34041 ft 426 kts 229°
2026-04-20 02:12 -21.76003 -42.10705 34041 ft 426 kts 229°
2026-04-20 02:13 -21.79917 -42.15494 33918 ft 426 kts 229°
2026-04-20 02:13 -21.81870 -42.17878 33473 ft 424 kts 228°
2026-04-20 02:13 -21.84010 -42.20122 32765 ft 426 kts 220°
2026-04-20 02:14 -21.86414 -42.21928 32090 ft 429 kts 213°
2026-04-20 02:14 -21.88996 -42.23535 31561 ft 427 kts 211°
2026-04-20 02:14 -21.91579 -42.25087 31096 ft 424 kts 211°
2026-04-20 02:14 -21.94150 -42.26628 30594 ft 422 kts 211°
2026-04-20 02:15 -21.96708 -42.28165 30068 ft 420 kts 211°
2026-04-20 02:15 -21.99253 -42.29698 29510 ft 418 kts 211°
2026-04-20 02:15 -22.01778 -42.31222 29029 ft 414 kts 211°
2026-04-20 02:15 -22.04278 -42.32734 28523 ft 410 kts 211°
2026-04-20 02:16 -22.06735 -42.34267 28027 ft 406 kts 214°
2026-04-20 02:16 -22.08906 -42.36158 27643 ft 398 kts 227°
2026-04-20 02:16 -22.10549 -42.38517 27304 ft 392 kts 240°
2026-04-20 02:16 -22.11585 -42.41215 26937 ft 389 kts 251°
2026-04-20 02:17 -22.12313 -42.44027 26585 ft 389 kts 253°
2026-04-20 02:17 -22.12983 -42.46856 26226 ft 389 kts 253°
2026-04-20 02:17 -22.13650 -42.49684 25860 ft 388 kts 253°
2026-04-20 02:17 -22.14317 -42.52495 25512 ft 386 kts 253°
2026-04-20 02:18 -22.14984 -42.55291 25155 ft 384 kts 253°
2026-04-20 02:18 -22.15652 -42.58079 24804 ft 383 kts 253°
2026-04-20 02:18 -22.16317 -42.60852 24467 ft 381 kts 253°
2026-04-20 02:18 -22.16979 -42.63610 24092 ft 379 kts 252°
2026-04-20 02:19 -22.17639 -42.66358 23745 ft 378 kts 252°
2026-04-20 02:19 -22.18296 -42.69097 23359 ft 376 kts 252°
2026-04-20 02:19 -22.18948 -42.71822 22996 ft 374 kts 253°
2026-04-20 02:19 -22.19599 -42.74538 22644 ft 373 kts 253°
2026-04-20 02:20 -22.20244 -42.77238 22307 ft 371 kts 253°
2026-04-20 02:20 -22.20887 -42.79926 21969 ft 369 kts 253°
2026-04-20 02:20 -22.21527 -42.82602 21620 ft 368 kts 253°
2026-04-20 02:20 -22.22165 -42.85269 21285 ft 366 kts 253°
2026-04-20 02:21 -22.23429 -42.90568 20617 ft 363 kts 253°
2026-04-20 02:21 -22.24056 -42.93199 20279 ft 362 kts 253°
2026-04-20 02:21 -22.24680 -42.95823 19947 ft 360 kts 253°
2026-04-20 02:22 -22.25302 -42.98435 19607 ft 359 kts 253°
2026-04-20 02:22 -22.25922 -43.01038 19280 ft 357 kts 253°
2026-04-20 02:22 -22.26537 -43.03629 18940 ft 356 kts 253°
2026-04-20 02:22 -22.27150 -43.06213 18577 ft 354 kts 253°
2026-04-20 02:23 -22.27759 -43.08782 18202 ft 353 kts 253°
2026-04-20 02:23 -22.28365 -43.11342 17816 ft 350 kts 253°
2026-04-20 02:23 -22.28967 -43.13883 17470 ft 349 kts 253°
2026-04-20 02:23 -22.29567 -43.16416 17119 ft 348 kts 253°
2026-04-20 02:24 -22.30163 -43.18940 16762 ft 346 kts 253°
2026-04-20 02:24 -22.30757 -43.21450 16415 ft 344 kts 253°
2026-04-20 02:24 -22.31348 -43.23952 16069 ft 343 kts 253°
2026-04-20 02:24 -22.31926 -43.26404 15730 ft 341 kts 253°
2026-04-20 02:25 -22.32518 -43.28914 15387 ft 340 kts 253°
2026-04-20 02:25 -22.33091 -43.31347 15048 ft 338 kts 253°
2026-04-20 02:25 -22.33669 -43.33802 14708 ft 337 kts 253°
2026-04-20 02:25 -22.34245 -43.36251 14367 ft 336 kts 253°
2026-04-20 02:26 -22.34819 -43.38689 14025 ft 334 kts 253°
2026-04-20 02:26 -22.35390 -43.41117 13668 ft 333 kts 253°
2026-04-20 02:26 -22.35957 -43.43532 13310 ft 331 kts 253°
2026-04-20 02:26 -22.36605 -43.45903 13061 ft 328 kts 246°
2026-04-20 02:27 -22.37771 -43.47998 12476 ft 327 kts 227°
2026-04-20 02:27 -22.39574 -43.49467 11950 ft 326 kts 208°
2026-04-20 02:27 -22.41646 -43.50443 11475 ft 325 kts 202°
2026-04-20 02:27 -22.43752 -43.51310 11034 ft 322 kts 202°
2026-04-20 02:28 -22.45823 -43.52151 10752 ft 314 kts 202°
2026-04-20 02:28 -22.47853 -43.52982 10385 ft 310 kts 202°
2026-04-20 02:28 -22.49844 -43.53805 10177 ft 301 kts 202°
2026-04-20 02:28 -22.51770 -43.54603 10012 ft 291 kts 202°
2026-04-20 02:29 -22.53640 -43.55379 9769 ft 284 kts 202°
2026-04-20 02:29 -22.55532 -43.55861 9575 ft 278 kts 184°
2026-04-20 02:29 -22.57429 -43.55552 9275 ft 278 kts 163°
2026-04-20 02:29 -22.59199 -43.54732 8965 ft 276 kts 158°
2026-04-20 02:30 -22.60917 -43.53822 8631 ft 274 kts 157°
2026-04-20 02:30 -22.62617 -43.52909 8304 ft 272 kts 156°
2026-04-20 02:30 -22.64202 -43.51804 7950 ft 274 kts 140°
2026-04-20 02:30 -22.65442 -43.50268 7603 ft 275 kts 130°
2026-04-20 02:31 -22.66550 -43.48611 7418 ft 266 kts 128°
2026-04-20 02:31 -22.67592 -43.47008 7231 ft 256 kts 129°
2026-04-20 02:31 -22.68607 -43.45453 6983 ft 249 kts 129°
2026-04-20 02:31 -22.69602 -43.43938 6613 ft 245 kts 129°
2026-04-20 02:32 -22.70593 -43.42438 6150 ft 245 kts 129°
2026-04-20 02:32 -22.71593 -43.40934 5531 ft 247 kts 129°
2026-04-20 02:32 -22.72598 -43.39430 4994 ft 244 kts 129°
2026-04-20 02:32 -22.73591 -43.37955 4379 ft 241 kts 129°
2026-04-20 02:33 -22.74576 -43.36498 3740 ft 239 kts 128°
2026-04-20 02:33 -22.75563 -43.35049 3043 ft 240 kts 128°
2026-04-20 02:33 -22.76528 -43.33604 2334 ft 233 kts 126°
2026-04-20 02:33 -22.77436 -43.32200 1768 ft 221 kts 126°
2026-04-20 02:34 -22.78279 -43.30868 1265 ft 208 kts 125°
2026-04-20 02:34 -22.79078 -43.29628 891 ft 193 kts 126°
2026-04-20 02:34 -22.79830 -43.28482 555 ft 180 kts 126°
2026-04-20 02:34 -22.80537 -43.27425 313 ft 169 kts 126°
2026-04-20 02:35 -22.81232 -43.26397 154 ft 181 kts 127°
2026-04-20 02:35 -22.82045 -43.25177 413 ft 216 kts 126°
2026-04-20 02:35 -22.82989 -43.23781 782 ft 242 kts 127°
2026-04-20 02:35 -22.83972 -43.22285 1425 ft 243 kts 121°
2026-04-20 02:36 -22.84595 -43.20619 1946 ft 239 kts 101°
2026-04-20 02:36 -22.84492 -43.18841 2079 ft 239 kts 70°
2026-04-20 02:36 -22.83583 -43.17357 2098 ft 239 kts 44°
2026-04-20 02:36 -22.82216 -43.16350 2092 ft 239 kts 19°
2026-04-20 02:37 -22.80603 -43.15942 2097 ft 239 kts
2026-04-20 02:37 -22.78974 -43.16103 2092 ft 236 kts 340°
2026-04-20 02:37 -22.77972 -43.16563 2096 ft 236 kts 333°
2026-04-20 02:37 -22.76516 -43.17393 2095 ft 237 kts 330°
2026-04-20 02:38 -22.75067 -43.18257 2094 ft 237 kts 330°
2026-04-20 02:38 -22.73624 -43.19122 2095 ft 237 kts 330°
2026-04-20 02:38 -22.72233 -43.20078 2100 ft 235 kts 318°
2026-04-20 02:38 -22.71123 -43.21290 2100 ft 218 kts 311°
2026-04-20 02:39 -22.70164 -43.22464 2079 ft 197 kts 310°
2026-04-20 02:39 -22.69315 -43.23528 2079 ft 180 kts 305°
2026-04-20 02:39 -22.68780 -43.24665 2091 ft 161 kts 289°
2026-04-20 02:39 -22.68447 -43.25779 2116 ft 153 kts 285°
2026-04-20 02:40 -22.68201 -43.26901 2100 ft 153 kts 276°
2026-04-20 02:40 -22.68270 -43.28021 2067 ft 147 kts 254°
2026-04-20 02:40 -22.68733 -43.28984 1926 ft 144 kts 229°
2026-04-20 02:40 -22.69506 -43.29667 1783 ft 144 kts 214°
2026-04-20 02:41 -22.70374 -43.30215 1646 ft 145 kts 209°
2026-04-20 02:41 -22.71271 -43.30711 1515 ft 145 kts 207°
2026-04-20 02:41 -22.72195 -43.31146 1377 ft 145 kts 197°
2026-04-20 02:41 -22.73192 -43.31228 1306 ft 146 kts 176°
2026-04-20 02:42 -22.74208 -43.31109 1281 ft 146 kts 174°
2026-04-20 02:42 -22.75218 -43.30965 1279 ft 147 kts 173°
2026-04-20 02:42 -22.76228 -43.30807 1254 ft 146 kts 173°
2026-04-20 02:42 -22.77231 -43.30610 1226 ft 147 kts 167°
2026-04-20 02:43 -22.78194 -43.30245 1132 ft 148 kts 154°
2026-04-20 02:43 -22.79027 -43.29602 936 ft 148 kts 135°
2026-04-20 02:43 -22.79670 -43.28725 639 ft 149 kts 125°
2026-04-20 02:43 -22.80271 -43.27816 387 ft 148 kts 127°
2026-04-20 02:44 -22.80876 -43.26914 192 ft 148 kts 126°
2026-04-20 02:44 -22.81472 -43.26021 43 ft 147 kts 126°
2026-04-20 02:44 -22.82007 -43.25219 30 ft 107 kts 126°
2026-04-20 02:44 -22.82247 -43.24856 24 ft 23 kts 126°
2026-04-20 02:45 -22.82320 -43.24724 22 ft 15 kts 110°
2026-04-20 02:45 -22.82348 -43.24639 24 ft 11 kts 108°
2026-04-20 02:45 -22.82359 -43.24558 22 ft 11 kts 96°
2026-04-20 02:45 -22.82367 -43.24475 22 ft 11 kts 86°
2026-04-20 02:46 -22.82320 -43.24412 23 ft 11 kts 38°
2026-04-20 02:46 -22.82264 -43.24368 23 ft 8 kts 36°
2026-04-20 02:46 -22.82227 -43.24339 27 ft 7 kts 36°
2026-04-20 02:46 -22.82181 -43.24303 26 ft 10 kts 36°
2026-04-20 02:47 -22.82117 -43.24253 27 ft 13 kts 36°
2026-04-20 02:47 -22.82043 -43.24192 24 ft 14 kts 35°
2026-04-20 02:47 -22.81970 -43.24135 25 ft 10 kts 37°
2026-04-20 02:47 -22.81919 -43.24109 27 ft 8 kts 353°
2026-04-20 02:48 -22.81881 -43.24144 25 ft 7 kts 314°
2026-04-20 02:48 -22.81839 -43.24161 27 ft 6 kts 346°
2026-04-20 02:48 -22.81797 -43.24172 25 ft 6 kts 346°
2026-04-20 02:48 -22.81776 -43.24177 27 ft 2 kts 347°
2026-04-20 02:49 -22.81767 -43.24180 25 ft 0 kts 345°